Location: Newark
(30.0333°N, 31.2167°E)
Time: 05:24:38
(UTC+00:00)

Tiros 1 despin weight - Pass Details

Date: 22 January 2020
Orbit: 594 x 642 km, 48.2° (Epoch: 25 February)

Event Time Altitude Azimuth Distance (km) Brightness Sun altitude
Rises 17:22:23 0° 306° (NW) 2,935 ? -25.7°
Reaches altitude 10° 17:24:44 10° 302° (WNW) 2,027 ? -26.2°
Maximum altitude 17:29:19 55° 225° (SW) 766 ? -27.1°
Enters shadow 17:29:29 55° 216° (SW) 769 ? -27.2°
Drops below altitude 10° 17:33:52 10° 148° (SSE) 2,019 - -28.1°
Sets 17:36:13 0° 144° (SE) 2,922 - -28.6°
